METEOR 2-17 DEB

Satellite information

Favourite Embed

Satellite Type and Status

DEBRISIN ORBIT

Key statistics

Satellite METEOR 2-17 DEB at a glance.

Uptime

13734

Days in orbit

Revolutions

≈ 14.0

Per day

Orbit

LEO

Low Earth Orbit

Inclination

82.5

Latest

Satellite identification and parameters

Extended collection of information and parameters for METEOR 2-17 DEB.

Object identification

Identified? True

Debris? True

Object name: METEOR 2-17 DEB

International designator: 1988-005C

Object number (NORAD): 28988

Object ID (CCSDS): 28988

Country: COMMONWEALTH OF INDEPENDENT STATES (CIS)

Current information (Y/N): Y

RCS size: SMALL

Orbital parameters

Period: 102.794 minutes

Inclination: 82.5331 deg

SMA: 7268.972 km

Apoapsis: 900.548 km

Periapsis: 881.127 km

RAAN: 142.4503 deg

Eccentricy: 0.00133586

Argument of periapsis: 3.3114 deg

Mean anomaly: 356.8141 deg

Mean motion: 14.00855182 rev/day

Mean motion (dot): 0.00006353 rev/day2

B* drag term: 0.0042403859 1/REarth

Two-line elements (TLE)

Creation date: Sept. 1, 2025, 7:24 p.m.

Reference frame: TEME

Reference center: EARTH

Epoch: Sept. 1, 2025, 10:52 a.m. UTC

TLE line 0: 0 METEOR 2-17 DEB

TLE line 1: 1 28988U 88005C 25244.45318620 .00006353 00000-0 42404-2 0 9995

TLE line 2: 2 28988 82.5331 142.4503 0013359 3.3114 356.8141 14.00855182573086

Live tracking on map

Real-time ground track for satellite METEOR 2-17 DEB.

In-orbit conjunctions

A list of the most updated potential collisions computed for object METEOR 2-17 DEB.

Target Orbit TCA Probability of collision Miss distance Type
FENGYUN 1C DEB SSO 2025-03-17 11:31:32 0.0003261965 72.0 (m) DEBRIS
FENGYUN 1C DEB SSO 2025-03-04 19:18:34 0.0001018093 311.0 (m) DEBRIS

Associated space launch

Second generation soviet meteorological satellite

METEOR 2-17 DEB was lifted into orbit during the mission ‘Tsiklon-3 | Meteor-2 17’, on board a Tsiklon-3 space rocket.

The launch took place on Jan. 30, 1988, 10:59 a.m. from 32/1.

For more information about the launch, click the button.

Launch to space Tsiklon-3 | Meteor-2 17
Tsiklon-3 | Meteor-2 17

Agency: N/A

Status: Launch Successful

Launch date: Jan. 30, 1988, 10:59 a.m. UTC

Rocket: Tsiklon-3

Launch pad: 32/1

Location: Plesetsk Cosmodrome, Russian Federation

...

Latest news about this satellite

There are no fresh news available about this satellite. Check back as we update our databases every day.


Newsletter sign-up

Weekly statistics, charts and insights to help you stay on top of the space industry.